,,Stat6,,Stat2,,Stat8,,Stat9,,Stat10,,Wind1,,Wind1,
time,status,PA1M_AVG,status,PR1M_SUM,status,RH1M_AVG,status,SR1M_AVG,status,TA1M_AVG,status,W1dAve1m,status,W1sAve1m,
2007-08-27, 00:00:00,VALID,916.696,VALID,0,VALID,100,VALID,-0.0679233,VALID,20.7867,VALID,56,VALID,0.61701,
2007-08-27, 00:01:00,VALID,916.7,VALID,0,VALID,100,VALID,-0.0679233,VALID,20.7964,VALID,51,VALID,0.546875,
2007-08-27, 00:02:00,VALID,916.697,VALID,0,VALID,100,VALID,-0.0849042,VALID,20.8129,VALID,50,VALID,0.65346,
2007-08-27, 00:03:00,VALID,916.695,VALID,0,VALID,100,VALID,-0.0679233,VALID,20.8191,VALID,50,VALID,0.498183,
2007-08-27, 00:04:00,VALID,916.69,VALID,0,VALID,100,VALID,-0.0679233,VALID,20.8319,VALID,44,VALID,0.567522,
2007-08-27, 00:05:00,VALID,916.693,VALID,0,VALID,100,VALID,-0.0679233,VALID,20.8354,VALID,39,VALID,0.619048,
2007-08-27, 00:06:00,VALID,916.68,VALID,0,VALID,100,VALID,-0.0169808,VALID,20.8089,VALID,32,VALID,0.512962,
2007-08-27, 00:07:00,VALID,916.682,VALID,0,VALID,100,VALID,-0.0509425,VALID,20.8356,VALID,26,VALID,0.302591,
2007-08-27, 00:08:00,VALID,916.672,VALID,0,VALID,100,VALID,-0.101885,VALID,20.8264,VALID,25,VALID,0.157158,
2007-08-27, 00:09:00,VALID,916.669,VALID,0,VALID,100,VALID,-0.0509425,VALID,20.8386,VALID,25,VALID,0.0563227,
2007-08-27, 00:10:00,VALID,916.652,VALID,0,VALID,100,VALID,-0.0849042,VALID,20.8519,VALID,25,VALID,0,
2007-08-27, 00:11:00,VALID,916.637,VALID,0,VALID,100,VALID,-0.101885,VALID,20.8421,VALID,25,VALID,0.0246394,
2007-08-27, 00:12:00,VALID,916.614,VALID,0,VALID,100,VALID,-0.0169808,VALID,20.8581,VALID,25,VALID,0.370722,
2007-08-27, 00:13:00,VALID,916.593,VALID,0,VALID,100,VALID,-0.0679233,VALID,20.8673,VALID,25,VALID,0.274164,
2007-08-27, 00:14:00,VALID,916.581,VALID,0,VALID,100,VALID,-0.0339617,VALID,20.8905,VALID,25,VALID,0.313072,
2007-08-27, 00:15:00,VALID,916.563,VALID,0,VALID,100,VALID,-0.0849042,VALID,20.9033,VALID,25,VALID,0.317587,
2007-08-27, 00:16:00,VALID,916.571,VALID,0,VALID,100,VALID,-0.0679233,VALID,20.923,VALID,25,VALID,0.546303,
2007-08-27, 00:17:00,VALID,916.569,VALID,0,VALID,100,VALID,-0.0679233,VALID,20.9295,VALID,25,VALID,0.301897,
2007-08-27, 00:18:00,VALID,916.586,VALID,0,VALID,100,VALID,-0.0339617,VALID,20.939,VALID,25,VALID,0.252673,
2007-08-27, 00:19:00,VALID,916.594,VALID,0,VALID,100,VALID,-0.0679233,VALID,20.9457,VALID,25,VALID,0.0946584,
2007-08-27, 00:20:00,VALID,916.595,VALID,0,VALID,100,VALID,-0.0509425,VALID,20.9519,VALID,25,VALID,0,
2007-08-27, 00:21:00,VALID,916.597,VALID,0,VALID,100,VALID,-0.0679233,VALID,20.9425,VALID,25,VALID,0.248264,
2007-08-27, 00:22:00,VALID,916.597,VALID,0,VALID,100,VALID,-0.0849042,VALID,20.9068,VALID,25,VALID,0.127046,
2007-08-27, 00:23:00,VALID,916.596,VALID,0,VALID,100,VALID,-0.0509425,VALID,20.8743,VALID,24,VALID,0.186435,
2007-08-27, 00:24:00,VALID,916.59,VALID,0,VALID,100,VALID,-0.0849042,VALID,20.8354,VALID,23,VALID,0.0457849,
2007-08-27, 00:25:00,VALID,916.601,VALID,0,VALID,100,VALID,-0.0509425,VALID,20.8294,VALID,23,VALID,0.0788872,
2007-08-27, 00:26:00,VALID,916.604,VALID,0,VALID,100,VALID,-0.0849042,VALID,20.8286,VALID,23,VALID,0.0581782,
2007-08-27, 00:27:00,VALID,916.603,VALID,0,VALID,100,VALID,-0.0169808,VALID,20.8256,VALID,23,VALID,0.0119913,
2007-08-27, 00:28:00,VALID,916.638,VALID,0,VALID,100,VALID,-0.0849042,VALID,20.8294,VALID,23,VALID,0,
2007-08-27, 00:29:00,VALID,916.628,VALID,0,VALID,100,VALID,-0.0679233,VALID,20.8259,VALID,23,VALID,0,
2007-08-27, 00:30:00,VALID,916.635,VALID,0,VALID,100,VALID,-0.0849042,VALID,20.8381,VALID,23,VALID,0.121652,
2007-08-27, 00:31:00,VALID,916.617,VALID,0,VALID,100,VALID,-0.0169808,VALID,20.8511,VALID,23,VALID,0.128815,
2007-08-27, 00:32:00,VALID,916.614,VALID,0,VALID,100,VALID,-0.0169808,VALID,20.8738,VALID,23,VALID,0.0753205,
2007-08-27, 00:33:00,VALID,916.609,VALID,0,VALID,100,VALID,-0.0169808,VALID,20.8935,VALID,23,VALID,0.159412,
2007-08-27, 00:34:00,VALID,916.578,VALID,0,VALID,100,VALID,-0.0169808,VALID,20.9068,VALID,23,VALID,0.00363372,
2007-08-27, 00:35:00,VALID,916.568,VALID,0,VALID,100,VALID,-0.0849042,VALID,20.9068,VALID,23,VALID,0,
2007-08-27, 00:36:00,VALID,916.559,VALID,0,VALID,100,VALID,-0.0169808,VALID,20.913,VALID,23,VALID,0,
2007-08-27, 00:37:00,VALID,916.563,VALID,0,VALID,100,VALID,-0.0509425,VALID,20.9027,VALID,23,VALID,0.0993823,
2007-08-27, 00:38:00,VALID,916.545,VALID,0,VALID,100,VALID,-0.0679233,VALID,20.8905,VALID,23,VALID,0.326562,
2007-08-27, 00:39:00,VALID,916.523,VALID,0,VALID,100,VALID,-0.0849042,VALID,20.8648,VALID,28,VALID,0.744368,
2007-08-27, 00:40:00,VALID,916.507,VALID,0,VALID,100,VALID,-0.0849042,VALID,20.8646,VALID,34,VALID,0.667361,
2007-08-27, 00:41:00,VALID,916.471,VALID,0,VALID,100,VALID,-0.0849042,VALID,20.8362,VALID,41,VALID,0.618229,
2007-08-27, 00:42:00,VALID,916.44,VALID,0,VALID,100,VALID,-0.101885,VALID,20.8164,VALID,49,VALID,0.630451,
2007-08-27, 00:43:00,VALID,916.409,VALID,0,VALID,100,VALID,-0.118866,VALID,20.7734,VALID,54,VALID,0.60665,
2007-08-27, 00:44:00,VALID,916.406,VALID,0,VALID,100,VALID,-0.0509425,VALID,20.7604,VALID,54,VALID,0.490327,
2007-08-27, 00:45:00,VALID,916.401,VALID,0,VALID,100,VALID,-0.101885,VALID,20.7583,VALID,54,VALID,0.616211,
2007-08-27, 00:46:00,VALID,916.4,VALID,0,VALID,100,VALID,-0.101885,VALID,20.7393,VALID,67,VALID,0.648624,
2007-08-27, 00:47:00,VALID,916.423,VALID,0,VALID,100,VALID,-0.101885,VALID,20.7136,VALID,77,VALID,0.318892,
2007-08-27, 00:48:00,VALID,916.429,VALID,0,VALID,100,VALID,-0.101885,VALID,20.6904,VALID,77,VALID,0.0798611,
2007-08-27, 00:49:00,VALID,916.44,VALID,0,VALID,100,VALID,-0.101885,VALID,20.6904,VALID,77,VALID,0,
2007-08-27, 00:50:00,VALID,916.449,VALID,0,VALID,100,VALID,-0.0679233,VALID,20.6833,VALID,77,VALID,0,
2007-08-27, 00:51:00,VALID,916.46,VALID,0,VALID,100,VALID,-0.0679233,VALID,20.7031,VALID,77,VALID,0,
2007-08-27, 00:52:00,VALID,916.468,VALID,0,VALID,100,VALID,-0.0849042,VALID,20.7128,VALID,77,VALID,0,
2007-08-27, 00:53:00,VALID,916.46,VALID,0,VALID,100,VALID,-0.0849042,VALID,20.7163,VALID,77,VALID,0,
2007-08-27, 00:54:00,VALID,916.463,VALID,0,VALID,100,VALID,-0.0849042,VALID,20.7153,VALID,77,VALID,0,
2007-08-27, 00:55:00,VALID,916.464,VALID,0,VALID,100,VALID,-0.118866,VALID,20.7328,VALID,77,VALID,0,
2007-08-27, 00:56:00,VALID,916.449,VALID,0,VALID,100,VALID,-0.0849042,VALID,20.7033,VALID,77,VALID,0,
2007-08-27, 00:57:00,VALID,916.435,VALID,0,VALID,100,VALID,-0.118866,VALID,20.7066,VALID,77,VALID,0,
2007-08-27, 00:58:00,VALID,916.425,VALID,0,VALID,100,VALID,-0.101885,VALID,20.7325,VALID,77,VALID,0,
2007-08-27, 00:59:00,VALID,916.417,VALID,0,VALID,100,VALID,-0.0679233,VALID,20.7515,VALID,77,VALID,0,
2007-08-27, 01:00:00,VALID,916.403,VALID,0,VALID,100,VALID,-0.0169808,VALID,20.7704,VALID,77,VALID,0,
2007-08-27, 01:01:00,VALID,916.397,VALID,0,VALID,100,VALID,0.0169808,VALID,20.7564,VALID,76,VALID,0.0523256,
2007-08-27, 01:02:00,VALID,916.39,VALID,0,VALID,100,VALID,0,VALID,20.7797,VALID,63,VALID,0.00327035,
2007-08-27, 01:03:00,VALID,916.396,VALID,0,VALID,100,VALID,0.0169808,VALID,20.7891,VALID,359,VALID,0.131037,
2007-08-27, 01:04:00,VALID,916.387,VALID,0,VALID,100,VALID,0,VALID,20.7626,VALID,359,VALID,0.150724,
2007-08-27, 01:05:00,VALID,916.38,VALID,0,VALID,100,VALID,0.0509425,VALID,20.7475,VALID,359,VALID,0,
2007-08-27, 01:06:00,VALID,916.375,VALID,0,VALID,100,VALID,0.0169808,VALID,20.7145,VALID,359,VALID,0,
2007-08-27, 01:07:00,VALID,916.354,VALID,0,VALID,100,VALID,0.0509425,VALID,20.7212,VALID,359,VALID,0,
2007-08-27, 01:08:00,VALID,916.354,VALID,0,VALID,100,VALID,0,VALID,20.7212,VALID,359,VALID,0,
2007-08-27, 01:09:00,VALID,916.345,VALID,0,VALID,100,VALID,0,VALID,20.7375,VALID,359,VALID,0,
2007-08-27, 01:10:00,VALID,916.335,VALID,0,VALID,100,VALID,0.0169808,VALID,20.7402,VALID,359,VALID,0,
2007-08-27, 01:11:00,VALID,916.331,VALID,0,VALID,100,VALID,0,VALID,20.7597,VALID,359,VALID,0.192406,
2007-08-27, 01:12:00,VALID,916.32,VALID,0,VALID,100,VALID,0,VALID,20.7926,VALID,359,VALID,0.166466,
2007-08-27, 01:13:00,VALID,916.311,VALID,0,VALID,100,VALID,-0.0169808,VALID,20.8183,VALID,359,VALID,0,
2007-08-27, 01:14:00,VALID,916.291,VALID,0,VALID,100,VALID,0.0339617,VALID,20.8183,VALID,355,VALID,0.164971,
2007-08-27, 01:15:00,VALID,916.284,VALID,0,VALID,100,VALID,0,VALID,20.7991,VALID,347,VALID,0.00247713,
2007-08-27, 01:16:00,VALID,916.275,VALID,0,VALID,100,VALID,0.0339617,VALID,20.7719,VALID,316,VALID,0.160252,
2007-08-27, 01:17:00,VALID,916.262,VALID,0,VALID,100,VALID,0.0169808,VALID,20.7699,VALID,314,VALID,0.145712,
2007-08-27, 01:18:00,VALID,916.265,VALID,0,VALID,100,VALID,0,VALID,20.7634,VALID,314,VALID,0,
2007-08-27, 01:19:00,VALID,916.266,VALID,0,VALID,100,VALID,0.0169808,VALID,20.7469,VALID,314,VALID,0.0863186,
2007-08-27, 01:20:00,VALID,916.265,VALID,0,VALID,100,VALID,0,VALID,20.7402,VALID,314,VALID,0.35434,
2007-08-27, 01:21:00,VALID,916.263,VALID,0,VALID,100,VALID,0.0339617,VALID,20.7499,VALID,346,VALID,0.46131,
2007-08-27, 01:22:00,VALID,916.262,VALID,0,VALID,100,VALID,0.0169808,VALID,20.7532,VALID,360,VALID,0.264062,
2007-08-27, 01:23:00,VALID,916.267,VALID,0,VALID,100,VALID,0,VALID,20.7569,VALID,13,VALID,0.316992,
2007-08-27, 01:24:00,VALID,916.253,VALID,0,VALID,100,VALID,0.0339617,VALID,20.7434,VALID,38,VALID,0.37642,
2007-08-27, 01:25:00,VALID,916.262,VALID,0,VALID,100,VALID,0.0509425,VALID,20.7169,VALID,39,VALID,0.362827,
2007-08-27, 01:26:00,VALID,916.259,VALID,0,VALID,100,VALID,0.0339617,VALID,20.705,VALID,39,VALID,0.224848,
2007-08-27, 01:27:00,VALID,916.256,VALID,0,VALID,100,VALID,0,VALID,20.6785,VALID,39,VALID,0.333333,
2007-08-27, 01:28:00,VALID,916.23,VALID,0,VALID,100,VALID,-0.0169808,VALID,20.6493,VALID,39,VALID,0.00550426,
2007-08-27, 01:29:00,VALID,916.204,VALID,0,VALID,100,VALID,0,VALID,20.6531,VALID,39,VALID,0.00145349,
2007-08-27, 01:30:00,VALID,916.169,VALID,0,VALID,100,VALID,0.0169808,VALID,20.6628,VALID,39,VALID,0,
2007-08-27, 01:31:00,VALID,916.144,VALID,0,VALID,100,VALID,0.0169808,VALID,20.6555,VALID,39,VALID,0,
2007-08-27, 01:32:00,VALID,916.116,VALID,0,VALID,100,VALID,0.0509425,VALID,20.6453,VALID,39,VALID,0,
2007-08-27, 01:33:00,VALID,916.099,VALID,0,VALID,100,VALID,0.0679233,VALID,20.6366,VALID,39,VALID,0,
2007-08-27, 01:34:00,VALID,916.061,VALID,0,VALID,100,VALID,0.0169808,VALID,20.6463,VALID,39,VALID,0,
2007-08-27, 01:35:00,VALID,916.05,VALID,0,VALID,100,VALID,0,VALID,20.6366,VALID,39,VALID,0.10883,
2007-08-27, 01:36:00,VALID,916.032,VALID,0,VALID,100,VALID,0.0169808,VALID,20.6263,VALID,39,VALID,0.206101,
2007-08-27, 01:37:00,VALID,916.029,VALID,0,VALID,100,VALID,0.0339617,VALID,20.6236,VALID,39,VALID,0.281994,
2007-08-27, 01:38:00,VALID,916.027,VALID,0,VALID,100,VALID,0.0509425,VALID,20.5777,VALID,39,VALID,0.331676,
2007-08-27, 01:39:00,VALID,916.01,VALID,0,VALID,100,VALID,0.0509425,VALID,20.5352,VALID,39,VALID,0.400618,
2007-08-27, 01:40:00,VALID,915.995,VALID,0,VALID,100,VALID,0.0169808,VALID,20.5257,VALID,39,VALID,0.258929,
2007-08-27, 01:41:00,VALID,915.982,VALID,0,VALID,100,VALID,0.0339617,VALID,20.5195,VALID,39,VALID,0.290365,
2007-08-27, 01:42:00,VALID,915.954,VALID,0,VALID,100,VALID,0.0339617,VALID,20.5065,VALID,39,VALID,0.302401,
2007-08-27, 01:43:00,VALID,915.931,VALID,0,VALID,100,VALID,0.0509425,VALID,20.4968,VALID,39,VALID,0.00744913,
2007-08-27, 01:44:00,VALID,915.904,VALID,0,VALID,100,VALID,0.0169808,VALID,20.5,VALID,39,VALID,0,
2007-08-27, 01:45:00,VALID,915.895,VALID,0,VALID,100,VALID,-0.0339617,VALID,20.5011,VALID,39,VALID,0,
2007-08-27, 01:46:00,VALID,915.858,VALID,0,VALID,100,VALID,0,VALID,20.4976,VALID,39,VALID,0,
2007-08-27, 01:47:00,VALID,915.85,VALID,0,VALID,100,VALID,-0.0169808,VALID,20.5141,VALID,39,VALID,0.0117188,
2007-08-27, 01:48:00,VALID,915.82,VALID,0,VALID,100,VALID,-0.0169808,VALID,20.5008,VALID,39,VALID,0.192708,
2007-08-27, 01:49:00,VALID,915.818,VALID,0,VALID,100,VALID,-0.0169808,VALID,20.5078,VALID,39,VALID,0.235795,
2007-08-27, 01:50:00,VALID,915.811,VALID,0,VALID,100,VALID,-0.0169808,VALID,20.4846,VALID,39,VALID,0.373437,
2007-08-27, 01:51:00,VALID,915.817,VALID,0,VALID,100,VALID,-0.0339617,VALID,20.4941,VALID,39,VALID,0.510485,
2007-08-27, 01:52:00,VALID,915.806,VALID,0,VALID,100,VALID,0,VALID,20.4938,VALID,39,VALID,0.563616,
2007-08-27, 01:53:00,VALID,915.805,VALID,0,VALID,100,VALID,0,VALID,20.5011,VALID,39,VALID,0.566778,
2007-08-27, 01:54:00,VALID,915.797,VALID,0,VALID,100,VALID,-0.0339617,VALID,20.4911,VALID,39,VALID,0.461664,
2007-08-27, 01:55:00,VALID,915.8,VALID,0,VALID,100,VALID,0,VALID,20.4684,VALID,39,VALID,0.334077,
2007-08-27, 01:56:00,VALID,915.788,VALID,0,VALID,100,VALID,-0.0339617,VALID,20.4619,VALID,39,VALID,0.415551,
2007-08-27, 01:57:00,VALID,915.776,VALID,0,VALID,100,VALID,0,VALID,20.4486,VALID,43,VALID,0.483422,
2007-08-27, 01:58:00,VALID,915.772,VALID,0,VALID,100,VALID,0.0169808,VALID,20.4062,VALID,55,VALID,0.463405,
2007-08-27, 01:59:00,VALID,915.757,VALID,0,VALID,100,VALID,0,VALID,20.4221,VALID,55,VALID,0.365327,
2007-08-27, 02:00:00,VALID,915.708,VALID,0,VALID,100,VALID,-0.0169808,VALID,20.4221,VALID,55,VALID,0.429688,
2007-08-27, 02:01:00,VALID,915.693,VALID,0,VALID,100,VALID,0,VALID,20.4234,VALID,55,VALID,0.505394,
2007-08-27, 02:02:00,VALID,915.685,VALID,0,VALID,100,VALID,-0.0169808,VALID,20.4164,VALID,55,VALID,0.49707,
2007-08-27, 02:03:00,VALID,915.659,VALID,0,VALID,100,VALID,0,VALID,20.4132,VALID,55,VALID,0.463663,
2007-08-27, 02:04:00,VALID,915.645,VALID,0,VALID,100,VALID,-0.0169808,VALID,20.4262,VALID,55,VALID,0.368056,
2007-08-27, 02:05:00,VALID,915.617,VALID,0,VALID,100,VALID,-0.0339617,VALID,20.4167,VALID,55,VALID,0.459635,
2007-08-27, 02:06:00,VALID,915.599,VALID,0,VALID,100,VALID,0,VALID,20.4359,VALID,55,VALID,0.351744,
2007-08-27, 02:07:00,VALID,915.577,VALID,0,VALID,100,VALID,0,VALID,20.4491,VALID,55,VALID,0.357143,
2007-08-27, 02:08:00,VALID,915.559,VALID,0,VALID,100,VALID,0,VALID,20.4324,VALID,55,VALID,0.461682,
2007-08-27, 02:09:00,VALID,915.533,VALID,0,VALID,100,VALID,0.0169808,VALID,20.4359,VALID,55,VALID,0.584302,
2007-08-27, 02:10:00,VALID,915.529,VALID,0,VALID,100,VALID,-0.0339617,VALID,20.4262,VALID,55,VALID,0.623857,
2007-08-27, 02:11:00,VALID,915.548,VALID,0,VALID,100,VALID,0,VALID,20.4164,VALID,55,VALID,0.381479,
2007-08-27, 02:12:00,VALID,915.551,VALID,0,VALID,100,VALID,-0.0169808,VALID,20.4097,VALID,54,VALID,0.533736,
2007-08-27, 02:13:00,VALID,915.56,VALID,0,VALID,100,VALID,0,VALID,20.4229,VALID,41,VALID,0.502976,
2007-08-27, 02:14:00,VALID,915.565,VALID,0,VALID,100,VALID,-0.0169808,VALID,20.4292,VALID,37,VALID,0.428571,
2007-08-27, 02:15:00,VALID,915.552,VALID,0,VALID,100,VALID,0,VALID,20.4386,VALID,31,VALID,0.693824,
2007-08-27, 02:16:00,VALID,915.55,VALID,0,VALID,100,VALID,0,VALID,20.4521,VALID,25,VALID,0.856712,
2007-08-27, 02:17:00,VALID,915.535,VALID,0,VALID,100,VALID,0.0169808,VALID,20.4716,VALID,25,VALID,0.471227,
2007-08-27, 02:18:00,VALID,915.524,VALID,0,VALID,100,VALID,-0.0169808,VALID,20.4911,VALID,35,VALID,0.806593,
2007-08-27, 02:19:00,VALID,915.512,VALID,0,VALID,100,VALID,0,VALID,20.4778,VALID,36,VALID,0.666481,
2007-08-27, 02:20:00,VALID,915.506,VALID,0,VALID,100,VALID,0,VALID,20.4873,VALID,38,VALID,0.732244,
2007-08-27, 02:21:00,VALID,915.479,VALID,0,VALID,100,VALID,0,VALID,20.5008,VALID,39,VALID,0.827553,
2007-08-27, 02:22:00,VALID,915.476,VALID,0,VALID,100,VALID,0,VALID,20.5041,VALID,39,VALID,0.902344,
2007-08-27, 02:23:00,VALID,915.468,VALID,0,VALID,100,VALID,0,VALID,20.507,VALID,37,VALID,0.616443,
2007-08-27, 02:24:00,VALID,915.467,VALID,0,VALID,100,VALID,0.0169808,VALID,20.5298,VALID,33,VALID,0.697493,
2007-08-27, 02:25:00,VALID,915.457,VALID,0,VALID,100,VALID,0,VALID,20.5105,VALID,32,VALID,1.01326,
2007-08-27, 02:26:00,VALID,915.458,VALID,0,VALID,100,VALID,-0.0339617,VALID,20.5073,VALID,49,VALID,0.954985,
2007-08-27, 02:27:00,VALID,915.459,VALID,0,VALID,100,VALID,0,VALID,20.5008,VALID,46,VALID,0.906944,
2007-08-27, 02:28:00,VALID,915.463,VALID,0,VALID,100,VALID,0,VALID,20.517,VALID,33,VALID,0.674805,
2007-08-27, 02:29:00,VALID,915.47,VALID,0,VALID,100,VALID,-0.0169808,VALID,20.5041,VALID,38,VALID,0.644077,
2007-08-27, 02:30:00,VALID,915.478,VALID,0,VALID,100,VALID,0,VALID,20.4871,VALID,38,VALID,0.507622,
2007-08-27, 02:31:00,VALID,915.466,VALID,0,VALID,100,VALID,-0.0169808,VALID,20.4908,VALID,38,VALID,0.243902,
2007-08-27, 02:32:00,VALID,915.464,VALID,0,VALID,100,VALID,0,VALID,20.4908,VALID,38,VALID,0.312855,
2007-08-27, 02:33:00,VALID,915.449,VALID,0,VALID,100,VALID,-0.0169808,VALID,20.4843,VALID,38,VALID,0.117006,
2007-08-27, 02:34:00,VALID,915.429,VALID,0,VALID,100,VALID,0,VALID,20.4943,VALID,38,VALID,0.131904,
2007-08-27, 02:35:00,VALID,915.409,VALID,0,VALID,100,VALID,-0.0169808,VALID,20.5103,VALID,38,VALID,0.128018,
2007-08-27, 02:36:00,VALID,915.388,VALID,0,VALID,100,VALID,0,VALID,20.5203,VALID,38,VALID,0,
2007-08-27, 02:37:00,VALID,915.37,VALID,0,VALID,100,VALID,0,VALID,20.5068,VALID,38,VALID,0.0132068,
2007-08-27, 02:38:00,VALID,915.333,VALID,0,VALID,100,VALID,-0.0169808,VALID,20.5235,VALID,38,VALID,0,
2007-08-27, 02:39:00,VALID,915.339,VALID,0,VALID,100,VALID,-0.0169808,VALID,20.5068,VALID,38,VALID,0,
2007-08-27, 02:40:00,VALID,915.316,VALID,0,VALID,100,VALID,0,VALID,20.5103,VALID,38,VALID,0,
2007-08-27, 02:41:00,VALID,915.311,VALID,0,VALID,100,VALID,0,VALID,20.5068,VALID,38,VALID,0,
2007-08-27, 02:42:00,VALID,915.3,VALID,0,VALID,100,VALID,0,VALID,20.5265,VALID,38,VALID,0.00994318,
2007-08-27, 02:43:00,VALID,915.296,VALID,0,VALID,100,VALID,-0.0339617,VALID,20.5295,VALID,38,VALID,0.174183,
2007-08-27, 02:44:00,VALID,915.272,VALID,0,VALID,100,VALID,0,VALID,20.5298,VALID,38,VALID,0,
2007-08-27, 02:45:00,VALID,915.271,VALID,0,VALID,100,VALID,-0.0339617,VALID,20.5203,VALID,38,VALID,0.134028,
2007-08-27, 02:46:00,VALID,915.257,VALID,0,VALID,100,VALID,-0.0339617,VALID,20.4908,VALID,38,VALID,0.346989,
2007-08-27, 02:47:00,VALID,915.24,VALID,0,VALID,100,VALID,-0.0509425,VALID,20.4911,VALID,38,VALID,0.434956,
2007-08-27, 02:48:00,VALID,915.218,VALID,0,VALID,100,VALID,-0.0509425,VALID,20.4843,VALID,38,VALID,0.480841,
2007-08-27, 02:49:00,VALID,915.199,VALID,0,VALID,100,VALID,-0.0849042,VALID,20.4813,VALID,38,VALID,0.250186,
2007-08-27, 02:50:00,VALID,915.177,VALID,0,VALID,100,VALID,-0.0849042,VALID,20.4521,VALID,42,VALID,0.459032,
2007-08-27, 02:51:00,VALID,915.174,VALID,0,VALID,100,VALID,-0.0849042,VALID,20.4197,VALID,116,VALID,0.468576,
2007-08-27, 02:52:00,VALID,915.143,VALID,0,VALID,100,VALID,-0.0679233,VALID,20.4064,VALID,143,VALID,0.62965,
2007-08-27, 02:53:00,VALID,915.132,VALID,0,VALID,100,VALID,-0.0679233,VALID,20.4105,VALID,143,VALID,0.478561,
2007-08-27, 02:54:00,VALID,915.119,VALID,0,VALID,100,VALID,-0.0849042,VALID,20.3807,VALID,149,VALID,0.581214,
2007-08-27, 02:55:00,VALID,915.105,VALID,0,VALID,100,VALID,-0.0679233,VALID,20.3775,VALID,156,VALID,0.506669,
2007-08-27, 02:56:00,VALID,915.09,VALID,0,VALID,100,VALID,-0.0509425,VALID,20.3575,VALID,156,VALID,0.360243,
2007-08-27, 02:57:00,VALID,915.096,VALID,0,VALID,100,VALID,-0.0679233,VALID,20.345,VALID,156,VALID,0.19455,
2007-08-27, 02:58:00,VALID,915.094,VALID,0,VALID,100,VALID,-0.0679233,VALID,20.3256,VALID,157,VALID,0.343023,
2007-08-27, 02:59:00,VALID,915.13,VALID,0,VALID,100,VALID,-0.0849042,VALID,20.3061,VALID,160,VALID,0.209032,
2007-08-27, 03:00:00,VALID,915.153,VALID,0,VALID,100,VALID,-0.101885,VALID,20.3031,VALID,160,VALID,0.0263158,
2007-08-27, 03:01:00,VALID,915.166,VALID,0,VALID,100,VALID,-0.0339617,VALID,20.2931,VALID,160,VALID,0,
2007-08-27, 03:02:00,VALID,915.185,VALID,0,VALID,100,VALID,-0.0509425,VALID,20.2996,VALID,160,VALID,0.0161701,
2007-08-27, 03:03:00,VALID,915.211,VALID,0,VALID,100,VALID,-0.0849042,VALID,20.3191,VALID,160,VALID,0.219271,
2007-08-27, 03:04:00,VALID,915.216,VALID,0,VALID,100,VALID,-0.0509425,VALID,20.345,VALID,159,VALID,0.138765,
2007-08-27, 03:05:00,VALID,915.224,VALID,0,VALID,100,VALID,-0.0339617,VALID,20.3643,VALID,159,VALID,0.040968,
2007-08-27, 03:06:00,VALID,915.228,VALID,0,VALID,100,VALID,-0.0509425,VALID,20.3645,VALID,159,VALID,0.0334821,
2007-08-27, 03:07:00,VALID,915.228,VALID,0,VALID,100,VALID,-0.0679233,VALID,20.3613,VALID,159,VALID,0.0078125,
2007-08-27, 03:08:00,VALID,915.214,VALID,0,VALID,100,VALID,-0.0679233,VALID,20.3518,VALID,159,VALID,0,
2007-08-27, 03:09:00,VALID,915.19,VALID,0,VALID,100,VALID,-0.101885,VALID,20.358,VALID,159,VALID,0,
2007-08-27, 03:10:00,VALID,915.156,VALID,0,VALID,100,VALID,-0.0849042,VALID,20.3645,VALID,159,VALID,0,
2007-08-27, 03:11:00,VALID,915.144,VALID,0,VALID,100,VALID,-0.0849042,VALID,20.358,VALID,159,VALID,0,
2007-08-27, 03:12:00,VALID,915.129,VALID,0,VALID,100,VALID,-0.0679233,VALID,20.355,VALID,159,VALID,0,
2007-08-27, 03:13:00,VALID,915.111,VALID,0,VALID,100,VALID,-0.0679233,VALID,20.345,VALID,159,VALID,0,
2007-08-27, 03:14:00,VALID,915.101,VALID,0,VALID,100,VALID,-0.0849042,VALID,20.3453,VALID,159,VALID,0.058689,
2007-08-27, 03:15:00,VALID,915.12,VALID,0,VALID,100,VALID,-0.101885,VALID,20.3453,VALID,159,VALID,0.103906,
2007-08-27, 03:16:00,VALID,915.136,VALID,0,VALID,100,VALID,-0.0339617,VALID,20.3385,VALID,159,VALID,0.200149,
2007-08-27, 03:17:00,VALID,915.142,VALID,0,VALID,100,VALID,-0.0509425,VALID,20.3221,VALID,159,VALID,0.0437863,
2007-08-27, 03:18:00,VALID,915.141,VALID,0,VALID,100,VALID,-0.0509425,VALID,20.3091,VALID,159,VALID,0,
2007-08-27, 03:19:00,VALID,915.143,VALID,0,VALID,100,VALID,-0.0509425,VALID,20.3158,VALID,159,VALID,0,
2007-08-27, 03:20:00,VALID,915.145,VALID,0,VALID,100,VALID,-0.0679233,VALID,20.3253,VALID,159,VALID,0,
2007-08-27, 03:21:00,VALID,915.131,VALID,0,VALID,100,VALID,-0.0509425,VALID,20.3188,VALID,159,VALID,0.00260417,
2007-08-27, 03:22:00,VALID,915.128,VALID,0,VALID,100,VALID,-0.0169808,VALID,20.3121,VALID,152,VALID,0.299419,
2007-08-27, 03:23:00,VALID,915.108,VALID,0,VALID,100,VALID,-0.0169808,VALID,20.2796,VALID,138,VALID,0.216712,
2007-08-27, 03:24:00,VALID,915.112,VALID,0,VALID,100,VALID,-0.0339617,VALID,20.2796,VALID,138,VALID,0.318598,
2007-08-27, 03:25:00,VALID,915.123,VALID,0,VALID,100,VALID,-0.0169808,VALID,20.2699,VALID,121,VALID,0.382422,
2007-08-27, 03:26:00,VALID,915.14,VALID,0,VALID,100,VALID,-0.0679233,VALID,20.2504,VALID,76,VALID,0.579055,
2007-08-27, 03:27:00,VALID,915.161,VALID,0,VALID,100,VALID,-0.0339617,VALID,20.2542,VALID,62,VALID,0.438902,
2007-08-27, 03:28:00,VALID,915.196,VALID,0,VALID,100,VALID,-0.0339617,VALID,20.2474,VALID,39,VALID,0.386914,
2007-08-27, 03:29:00,VALID,915.225,VALID,0,VALID,100,VALID,-0.0339617,VALID,20.2315,VALID,38,VALID,0.332919,
2007-08-27, 03:30:00,VALID,915.251,VALID,0,VALID,100,VALID,-0.0509425,VALID,20.2642,VALID,38,VALID,0.0353338,
2007-08-27, 03:31:00,VALID,915.258,VALID,0,VALID,100,VALID,-0.0169808,VALID,20.2529,VALID,38,VALID,0.000585938,
2007-08-27, 03:32:00,VALID,915.252,VALID,0,VALID,100,VALID,-0.0339617,VALID,20.2699,VALID,38,VALID,0.0991443,
2007-08-27, 03:33:00,VALID,915.229,VALID,0,VALID,100,VALID,0,VALID,20.2596,VALID,38,VALID,0.0921875,
2007-08-27, 03:34:00,VALID,915.186,VALID,0,VALID,100,VALID,-0.0169808,VALID,20.2634,VALID,39,VALID,0.374818,
2007-08-27, 03:35:00,VALID,915.131,VALID,0,VALID,100,VALID,-0.0509425,VALID,20.2694,VALID,42,VALID,0.446646,
2007-08-27, 03:36:00,VALID,915.1,VALID,0,VALID,100,VALID,-0.0849042,VALID,20.2672,VALID,44,VALID,0.122514,
2007-08-27, 03:37:00,VALID,915.059,VALID,0,VALID,100,VALID,-0.0849042,VALID,20.2831,VALID,44,VALID,0.000952744,
2007-08-27, 03:38:00,VALID,915.025,VALID,0,VALID,100,VALID,-0.0339617,VALID,20.3026,VALID,34,VALID,0.0646802,
2007-08-27, 03:39:00,VALID,915.011,VALID,0,VALID,100,VALID,-0.0679233,VALID,20.2991,VALID,342,VALID,0.196057,
2007-08-27, 03:40:00,VALID,914.999,VALID,0,VALID,100,VALID,-0.0849042,VALID,20.2834,VALID,323,VALID,0.461496,
2007-08-27, 03:41:00,VALID,914.974,VALID,0,VALID,100,VALID,-0.0679233,VALID,20.2477,VALID,323,VALID,0.359375,
2007-08-27, 03:42:00,VALID,914.966,VALID,0,VALID,100,VALID,-0.0679233,VALID,20.2414,VALID,322,VALID,0.289621,
2007-08-27, 03:43:00,VALID,914.947,VALID,0,VALID,100,VALID,-0.0679233,VALID,20.2379,VALID,321,VALID,0.0865091,
2007-08-27, 03:44:00,VALID,914.933,VALID,0,VALID,100,VALID,-0.101885,VALID,20.2447,VALID,321,VALID,0,